,,,PA_Meas_PMT16A,,PR_Meas_QMR101_102,,RH_Meas_QMH101,,SR_Meas_QMS101,,TA_Meas_QMH101,,GenWind,,GenWind,
date,time,status,PA,status,PR,status,RH,status,SR,status,TA,status,DirAvg,status,SpdAvg,
2008-04-23, 00:00:04,VALID,1008.71,VALID,0,VALID,95.0931,VALID,0,VALID,24.1812,VALID,83,VALID,0.151562,
2008-04-23, 00:01:04,VALID,1008.71,VALID,0,VALID,95.1694,VALID,0,VALID,24.1812,VALID,83,VALID,0.408984,
2008-04-23, 00:02:04,VALID,1008.7,VALID,0,VALID,95.1923,VALID,0,VALID,24.2202,VALID,83,VALID,0.283984,
2008-04-23, 00:03:04,VALID,1008.71,VALID,0,VALID,95.238,VALID,0,VALID,24.2007,VALID,83,VALID,0.321094,
2008-04-23, 00:04:04,VALID,1008.71,VALID,0,VALID,95.2533,VALID,0,VALID,24.1617,VALID,80,VALID,0.428125,
2008-04-23, 00:05:04,VALID,1008.73,VALID,0,VALID,95.2762,VALID,0,VALID,24.1812,VALID,80,VALID,0.432422,
2008-04-23, 00:06:04,VALID,1008.69,VALID,0,VALID,95.2685,VALID,0,VALID,24.1812,VALID,79,VALID,0.526172,
2008-04-23, 00:07:04,VALID,1008.7,VALID,0,VALID,95.2685,VALID,0,VALID,24.1812,VALID,79,VALID,0.30625,
2008-04-23, 00:08:04,VALID,1008.69,VALID,0,VALID,95.2609,VALID,0,VALID,24.2007,VALID,79,VALID,0.3375,
2008-04-23, 00:09:04,VALID,1008.66,VALID,0,VALID,95.2762,VALID,0,VALID,24.2007,VALID,86,VALID,0.479297,
2008-04-23, 00:10:04,VALID,1008.65,VALID,0,VALID,95.2685,VALID,0,VALID,24.2007,VALID,101,VALID,0.520312,
2008-04-23, 00:11:04,VALID,1008.64,VALID,0,VALID,95.2762,VALID,0,VALID,24.1812,VALID,95,VALID,0.674219,
2008-04-23, 00:12:04,VALID,1008.6,VALID,0,VALID,95.2838,VALID,0,VALID,24.1812,VALID,113,VALID,0.565234,
2008-04-23, 00:13:04,VALID,1008.6,VALID,0,VALID,95.2762,VALID,0,VALID,24.1812,VALID,104,VALID,0.665234,
2008-04-23, 00:14:04,VALID,1008.6,VALID,0,VALID,95.2609,VALID,0,VALID,24.2025,VALID,112,VALID,0.464453,
2008-04-23, 00:15:04,VALID,1008.59,VALID,0,VALID,95.2609,VALID,0,VALID,24.2007,VALID,114,VALID,0.397266,
2008-04-23, 00:16:04,VALID,1008.56,VALID,0,VALID,95.238,VALID,0,VALID,24.1812,VALID,93,VALID,0.341016,
2008-04-23, 00:17:04,VALID,1008.56,VALID,0,VALID,95.238,VALID,0,VALID,24.1812,VALID,97,VALID,0.653125,
2008-04-23, 00:18:04,VALID,1008.53,VALID,0,VALID,95.2304,VALID,0,VALID,24.1635,VALID,98,VALID,0.589453,
2008-04-23, 00:19:04,VALID,1008.55,VALID,0,VALID,95.2075,VALID,0,VALID,24.183,VALID,92,VALID,0.642969,
2008-04-23, 00:20:04,VALID,1008.54,VALID,0,VALID,95.2075,VALID,0,VALID,24.1617,VALID,85,VALID,0.537109,
2008-04-23, 00:21:04,VALID,1008.53,VALID,0,VALID,95.2152,VALID,0,VALID,24.183,VALID,85,VALID,0.319531,
2008-04-23, 00:22:04,VALID,1008.53,VALID,0,VALID,95.2228,VALID,0,VALID,24.1812,VALID,85,VALID,0.510547,
2008-04-23, 00:23:04,VALID,1008.51,VALID,0,VALID,95.2152,VALID,0,VALID,24.1617,VALID,85,VALID,0.34375,
2008-04-23, 00:24:04,VALID,1008.47,VALID,0,VALID,95.1999,VALID,0,VALID,24.1617,VALID,86,VALID,0.209375,
2008-04-23, 00:25:04,VALID,1008.45,VALID,0,VALID,95.1999,VALID,0,VALID,24.1617,VALID,86,VALID,0.10625,
2008-04-23, 00:26:04,VALID,1008.46,VALID,0,VALID,95.116,VALID,0,VALID,24.1635,VALID,107,VALID,0.45625,
2008-04-23, 00:27:04,VALID,1008.42,VALID,0,VALID,95.0626,VALID,0,VALID,24.1032,VALID,130,VALID,0.480469,
2008-04-23, 00:28:04,VALID,1008.43,VALID,0,VALID,95.055,VALID,0,VALID,24.1051,VALID,135,VALID,0.401172,
2008-04-23, 00:29:04,VALID,1008.45,VALID,0,VALID,95.0855,VALID,0,VALID,24.0661,VALID,135,VALID,0.307813,
2008-04-23, 00:30:04,VALID,1008.42,VALID,0,VALID,95.177,VALID,0,VALID,24.0643,VALID,109,VALID,0.626172,
2008-04-23, 00:31:04,VALID,1008.4,VALID,0,VALID,95.2838,VALID,0,VALID,24.0643,VALID,100,VALID,0.838672,
2008-04-23, 00:32:04,VALID,1008.41,VALID,0,VALID,95.3067,VALID,0,VALID,24.0856,VALID,100,VALID,0.546094,
2008-04-23, 00:33:04,VALID,1008.41,VALID,0,VALID,95.238,VALID,0,VALID,24.0643,VALID,86,VALID,0.617969,
2008-04-23, 00:34:04,VALID,1008.4,VALID,0,VALID,95.2609,VALID,0,VALID,24.0856,VALID,86,VALID,0.328906,
2008-04-23, 00:35:04,VALID,1008.37,VALID,0,VALID,95.2533,VALID,0,VALID,24.0643,VALID,117,VALID,0.575,
2008-04-23, 00:36:04,VALID,1008.34,VALID,0,VALID,95.238,VALID,0,VALID,24.0448,VALID,116,VALID,0.596484,
2008-04-23, 00:37:04,VALID,1008.33,VALID,0,VALID,95.2228,VALID,0,VALID,24.0253,VALID,113,VALID,0.614062,
2008-04-23, 00:38:04,VALID,1008.33,VALID,0,VALID,95.238,VALID,0,VALID,24.0661,VALID,123,VALID,0.624219,
2008-04-23, 00:39:04,VALID,1008.31,VALID,0,VALID,95.2304,VALID,0,VALID,24.0643,VALID,109,VALID,0.510547,
2008-04-23, 00:40:04,VALID,1008.32,VALID,0,VALID,95.2457,VALID,0,VALID,24.0466,VALID,105,VALID,0.371094,
2008-04-23, 00:41:04,VALID,1008.3,VALID,0,VALID,95.2228,VALID,0,VALID,24.0466,VALID,105,VALID,0.380078,
2008-04-23, 00:42:04,VALID,1008.29,VALID,0,VALID,95.2228,VALID,0,VALID,24.0271,VALID,137,VALID,0.473437,
2008-04-23, 00:43:04,VALID,1008.28,VALID,0,VALID,95.2304,VALID,0,VALID,24.0058,VALID,134,VALID,0.544922,
2008-04-23, 00:44:04,VALID,1008.3,VALID,0,VALID,95.1999,VALID,0,VALID,24.0058,VALID,127,VALID,0.529688,
2008-04-23, 00:45:04,VALID,1008.31,VALID,0,VALID,95.2304,VALID,0,VALID,24.0058,VALID,120,VALID,0.446484,
2008-04-23, 00:46:04,VALID,1008.31,VALID,0,VALID,95.1542,VALID,0,VALID,23.9473,VALID,133,VALID,0.471484,
2008-04-23, 00:47:04,VALID,1008.33,VALID,0,VALID,95.1465,VALID,0,VALID,23.9473,VALID,136,VALID,0.540625,
2008-04-23, 00:48:04,VALID,1008.31,VALID,0,VALID,95.1084,VALID,0,VALID,23.9084,VALID,139,VALID,0.584766,
2008-04-23, 00:49:04,VALID,1008.28,VALID,0,VALID,95.1313,VALID,0,VALID,23.9084,VALID,143,VALID,0.466797,
2008-04-23, 00:50:04,VALID,1008.3,VALID,0,VALID,95.1389,VALID,0,VALID,23.9278,VALID,149,VALID,0.366406,
2008-04-23, 00:51:04,VALID,1008.29,VALID,0,VALID,95.1618,VALID,0,VALID,23.8889,VALID,149,VALID,0.383594,
2008-04-23, 00:52:04,VALID,1008.23,VALID,0,VALID,95.1847,VALID,0,VALID,23.8499,VALID,149,VALID,0.0761719,
2008-04-23, 00:53:04,VALID,1008.24,VALID,0,VALID,95.177,VALID,0.105969,VALID,23.8499,VALID,149,VALID,0,
2008-04-23, 00:54:04,VALID,1008.24,VALID,0,VALID,95.2152,VALID,0,VALID,23.8499,VALID,149,VALID,0,
2008-04-23, 00:55:04,VALID,1008.24,VALID,0,VALID,95.2685,VALID,0,VALID,23.8499,VALID,149,VALID,0,
2008-04-23, 00:56:04,VALID,1008.19,VALID,0,VALID,95.3067,VALID,0,VALID,23.8499,VALID,149,VALID,0,
2008-04-23, 00:57:04,VALID,1008.2,VALID,0,VALID,95.3677,VALID,0,VALID,23.8694,VALID,149,VALID,0,
2008-04-23, 00:58:04,VALID,1008.19,VALID,0,VALID,95.3905,VALID,0,VALID,23.8694,VALID,149,VALID,0,
2008-04-23, 00:59:04,VALID,1008.19,VALID,0,VALID,95.3982,VALID,0.105969,VALID,23.8499,VALID,149,VALID,0,
2008-04-23, 01:00:04,VALID,1008.17,VALID,0,VALID,95.3829,VALID,0.105969,VALID,23.8499,VALID,149,VALID,0,
2008-04-23, 01:01:04,VALID,1008.15,VALID,0,VALID,95.3677,VALID,0.105969,VALID,23.8694,VALID,149,VALID,0,
2008-04-23, 01:02:04,VALID,1008.14,VALID,0,VALID,95.4363,VALID,0,VALID,23.8304,VALID,149,VALID,0,
2008-04-23, 01:03:04,VALID,1008.12,VALID,0,VALID,95.4211,VALID,0,VALID,23.8109,VALID,149,VALID,0,
2008-04-23, 01:04:04,VALID,1008.09,VALID,0,VALID,95.4211,VALID,0,VALID,23.8304,VALID,149,VALID,0.0867188,
2008-04-23, 01:05:04,VALID,1008.06,VALID,0,VALID,95.3982,VALID,0,VALID,23.7914,VALID,149,VALID,0.285547,
2008-04-23, 01:06:04,VALID,1008.03,VALID,0,VALID,95.3982,VALID,0,VALID,23.7914,VALID,149,VALID,0.242188,
2008-04-23, 01:07:04,VALID,1008.03,VALID,0,VALID,95.3982,VALID,0,VALID,23.772,VALID,149,VALID,0.2375,
2008-04-23, 01:08:04,VALID,1008.03,VALID,0,VALID,95.4287,VALID,0,VALID,23.7525,VALID,149,VALID,0.264062,
2008-04-23, 01:09:04,VALID,1008,VALID,0,VALID,95.5049,VALID,0,VALID,23.7525,VALID,149,VALID,0.210938,
2008-04-23, 01:10:04,VALID,1007.98,VALID,0,VALID,95.5278,VALID,0,VALID,23.7348,VALID,149,VALID,0.256641,
2008-04-23, 01:11:04,VALID,1007.95,VALID,0,VALID,95.5659,VALID,0,VALID,23.733,VALID,149,VALID,0.236328,
2008-04-23, 01:12:04,VALID,1007.95,VALID,0,VALID,95.5812,VALID,0,VALID,23.7525,VALID,149,VALID,0,
2008-04-23, 01:13:04,VALID,1007.96,VALID,0,VALID,95.5812,VALID,0,VALID,23.7525,VALID,149,VALID,0,
2008-04-23, 01:14:04,VALID,1007.93,VALID,0,VALID,95.5964,VALID,0,VALID,23.7525,VALID,149,VALID,0,
2008-04-23, 01:15:04,VALID,1007.93,VALID,0,VALID,95.5888,VALID,0,VALID,23.772,VALID,149,VALID,0,
2008-04-23, 01:16:04,VALID,1007.89,VALID,0,VALID,95.5736,VALID,0,VALID,23.7525,VALID,149,VALID,0,
2008-04-23, 01:17:04,VALID,1007.89,VALID,0,VALID,95.5659,VALID,0,VALID,23.733,VALID,149,VALID,0,
2008-04-23, 01:18:04,VALID,1007.85,VALID,0,VALID,95.5888,VALID,0,VALID,23.7525,VALID,149,VALID,0,
2008-04-23, 01:19:04,VALID,1007.84,VALID,0,VALID,95.6041,VALID,0,VALID,23.733,VALID,149,VALID,0,
2008-04-23, 01:20:04,VALID,1007.84,VALID,0,VALID,95.6269,VALID,0,VALID,23.7525,VALID,149,VALID,0,
2008-04-23, 01:21:04,VALID,1007.8,VALID,0,VALID,95.6041,VALID,0,VALID,23.7525,VALID,149,VALID,0.194531,
2008-04-23, 01:22:04,VALID,1007.8,VALID,0,VALID,95.6041,VALID,0,VALID,23.7135,VALID,149,VALID,0.252344,
2008-04-23, 01:23:04,VALID,1007.78,VALID,0,VALID,95.6422,VALID,0,VALID,23.733,VALID,149,VALID,0.315234,
2008-04-23, 01:24:04,VALID,1007.75,VALID,0,VALID,95.6651,VALID,0,VALID,23.733,VALID,149,VALID,0.269141,
2008-04-23, 01:25:04,VALID,1007.74,VALID,0,VALID,95.6956,VALID,0,VALID,23.7117,VALID,149,VALID,0.301953,
2008-04-23, 01:26:04,VALID,1007.71,VALID,0,VALID,95.7108,VALID,0,VALID,23.733,VALID,149,VALID,0.324219,
2008-04-23, 01:27:04,VALID,1007.71,VALID,0,VALID,95.6803,VALID,0,VALID,23.733,VALID,149,VALID,0.204688,
2008-04-23, 01:28:04,VALID,1007.69,VALID,0,VALID,95.7261,VALID,0,VALID,23.733,VALID,149,VALID,0.238281,
2008-04-23, 01:29:04,VALID,1007.66,VALID,0,VALID,95.7108,VALID,0,VALID,23.733,VALID,149,VALID,0.0644531,
2008-04-23, 01:30:04,VALID,1007.63,VALID,0,VALID,95.688,VALID,0,VALID,23.7135,VALID,149,VALID,0.103516,
2008-04-23, 01:31:04,VALID,1007.6,VALID,0,VALID,95.7108,VALID,0,VALID,23.694,VALID,149,VALID,0.182812,
2008-04-23, 01:32:04,VALID,1007.59,VALID,0,VALID,95.7032,VALID,0,VALID,23.7135,VALID,149,VALID,0,
2008-04-23, 01:33:05,VALID,1007.54,VALID,0,VALID,95.7032,VALID,0,VALID,23.7348,VALID,149,VALID,0.0792969,
2008-04-23, 01:34:05,VALID,1007.52,VALID,0,VALID,95.6956,VALID,0,VALID,23.694,VALID,149,VALID,0.0703125,
2008-04-23, 01:35:05,VALID,1007.51,VALID,0,VALID,95.7108,VALID,0,VALID,23.6745,VALID,149,VALID,0.157422,
2008-04-23, 01:36:05,VALID,1007.44,VALID,0,VALID,95.7032,VALID,0,VALID,23.6958,VALID,149,VALID,0.120312,
2008-04-23, 01:37:05,VALID,1007.46,VALID,0,VALID,95.749,VALID,0,VALID,23.6763,VALID,149,VALID,0,
2008-04-23, 01:38:05,VALID,1007.42,VALID,0,VALID,95.7566,VALID,0,VALID,23.694,VALID,149,VALID,0,
2008-04-23, 01:39:05,VALID,1007.4,VALID,0,VALID,95.7566,VALID,0,VALID,23.6745,VALID,149,VALID,0,
2008-04-23, 01:40:05,VALID,1007.4,VALID,0,VALID,95.7795,VALID,0,VALID,23.7348,VALID,149,VALID,0,
2008-04-23, 01:41:05,VALID,1007.39,VALID,0,VALID,95.7718,VALID,0,VALID,23.655,VALID,149,VALID,0,
2008-04-23, 01:42:05,VALID,1007.39,VALID,0,VALID,95.81,VALID,0,VALID,23.6745,VALID,149,VALID,0,
2008-04-23, 01:43:05,VALID,1007.37,VALID,0,VALID,95.8176,VALID,0,VALID,23.6958,VALID,149,VALID,0,
2008-04-23, 01:44:05,VALID,1007.39,VALID,0,VALID,95.8176,VALID,0,VALID,23.6745,VALID,149,VALID,0,
2008-04-23, 01:45:05,VALID,1007.44,VALID,0,VALID,95.81,VALID,0,VALID,23.6745,VALID,149,VALID,0,
2008-04-23, 01:46:05,VALID,1007.38,VALID,0,VALID,95.8176,VALID,0,VALID,23.6745,VALID,149,VALID,0,
2008-04-23, 01:47:05,VALID,1007.4,VALID,0,VALID,95.8405,VALID,0,VALID,23.6745,VALID,149,VALID,0,
2008-04-23, 01:48:05,VALID,1007.38,VALID,0,VALID,95.8557,VALID,0,VALID,23.6745,VALID,149,VALID,0,
2008-04-23, 01:49:05,VALID,1007.39,VALID,0,VALID,95.8633,VALID,0,VALID,23.6745,VALID,149,VALID,0,
2008-04-23, 01:50:05,VALID,1007.41,VALID,0,VALID,95.8633,VALID,0,VALID,23.6745,VALID,149,VALID,0,
2008-04-23, 01:51:05,VALID,1007.4,VALID,0,VALID,95.8939,VALID,0,VALID,23.694,VALID,149,VALID,0,
2008-04-23, 01:52:05,VALID,1007.38,VALID,0,VALID,95.932,VALID,0,VALID,23.694,VALID,149,VALID,0,
2008-04-23, 01:53:05,VALID,1007.39,VALID,0,VALID,95.932,VALID,0,VALID,23.7135,VALID,149,VALID,0.177734,
2008-04-23, 01:54:05,VALID,1007.36,VALID,0,VALID,95.932,VALID,0,VALID,23.733,VALID,149,VALID,0.240625,
2008-04-23, 01:55:05,VALID,1007.35,VALID,0,VALID,95.9167,VALID,0,VALID,23.7135,VALID,147,VALID,0.277344,
2008-04-23, 01:56:05,VALID,1007.35,VALID,0,VALID,95.9015,VALID,0,VALID,23.7507,VALID,147,VALID,0.278516,
2008-04-23, 01:57:05,VALID,1007.35,VALID,0,VALID,95.8939,VALID,0,VALID,23.7135,VALID,117,VALID,0.314453,
2008-04-23, 01:58:05,VALID,1007.34,VALID,0,VALID,95.8939,VALID,0,VALID,23.7135,VALID,117,VALID,0.285547,
2008-04-23, 01:59:05,VALID,1007.33,VALID,0,VALID,95.8862,VALID,0,VALID,23.694,VALID,117,VALID,0.272266,
2008-04-23, 02:00:05,VALID,1007.34,VALID,0,VALID,95.8862,VALID,0,VALID,23.694,VALID,117,VALID,0.221094,
2008-04-23, 02:01:05,VALID,1007.33,VALID,0,VALID,95.9015,VALID,0,VALID,23.694,VALID,117,VALID,0.1875,
2008-04-23, 02:02:05,VALID,1007.32,VALID,0,VALID,95.9091,VALID,0,VALID,23.694,VALID,117,VALID,0.138672,
2008-04-23, 02:03:05,VALID,1007.33,VALID,0,VALID,95.9091,VALID,0,VALID,23.694,VALID,117,VALID,0.134766,
2008-04-23, 02:04:05,VALID,1007.32,VALID,0,VALID,95.8939,VALID,0,VALID,23.6745,VALID,117,VALID,0.225391,
2008-04-23, 02:05:05,VALID,1007.36,VALID,0,VALID,95.8786,VALID,0,VALID,23.694,VALID,117,VALID,0.440234,
2008-04-23, 02:06:05,VALID,1007.38,VALID,0,VALID,95.9244,VALID,0,VALID,23.6745,VALID,101,VALID,0.522656,
2008-04-23, 02:07:05,VALID,1007.35,VALID,0,VALID,95.932,VALID,0,VALID,23.655,VALID,99,VALID,0.538281,
2008-04-23, 02:08:05,VALID,1007.39,VALID,0,VALID,95.9472,VALID,0,VALID,23.694,VALID,98,VALID,0.596094,
2008-04-23, 02:09:05,VALID,1007.36,VALID,0,VALID,95.9396,VALID,0,VALID,23.694,VALID,85,VALID,0.625781,
2008-04-23, 02:10:05,VALID,1007.41,VALID,0,VALID,95.9244,VALID,0,VALID,23.7153,VALID,82,VALID,0.414844,
2008-04-23, 02:11:05,VALID,1007.38,VALID,0,VALID,95.9015,VALID,0,VALID,23.6745,VALID,78,VALID,0.680859,
2008-04-23, 02:12:05,VALID,1007.39,VALID,0,VALID,95.8786,VALID,0,VALID,23.6745,VALID,76,VALID,0.607813,
2008-04-23, 02:13:05,VALID,1007.37,VALID,0,VALID,95.8557,VALID,0,VALID,23.655,VALID,76,VALID,0.268359,
2008-04-23, 02:14:05,VALID,1007.38,VALID,0,VALID,95.8176,VALID,0,VALID,23.655,VALID,76,VALID,0.229687,
2008-04-23, 02:15:05,VALID,1007.38,VALID,0,VALID,95.8176,VALID,0,VALID,23.6568,VALID,76,VALID,0.206641,
2008-04-23, 02:16:05,VALID,1007.36,VALID,0,VALID,95.8176,VALID,0,VALID,23.6356,VALID,76,VALID,0.180469,
2008-04-23, 02:17:05,VALID,1007.33,VALID,0,VALID,95.8328,VALID,0,VALID,23.6356,VALID,76,VALID,0.139453,
2008-04-23, 02:18:05,VALID,1007.31,VALID,0,VALID,95.8252,VALID,0,VALID,23.6373,VALID,76,VALID,0.04375,
2008-04-23, 02:19:05,VALID,1007.27,VALID,0,VALID,95.8405,VALID,0,VALID,23.6356,VALID,76,VALID,0.112109,
2008-04-23, 02:20:05,VALID,1007.28,VALID,0,VALID,95.8633,VALID,0,VALID,23.6356,VALID,76,VALID,0.387109,
2008-04-23, 02:21:05,VALID,1007.25,VALID,0,VALID,95.9015,VALID,0,VALID,23.6745,VALID,78,VALID,0.453516,
2008-04-23, 02:22:05,VALID,1007.23,VALID,0,VALID,95.9167,VALID,0,VALID,23.6745,VALID,78,VALID,0.370313,
2008-04-23, 02:23:05,VALID,1007.21,VALID,0,VALID,95.9244,VALID,0,VALID,23.694,VALID,78,VALID,0.244922,
2008-04-23, 02:24:05,VALID,1007.2,VALID,0,VALID,95.8939,VALID,0,VALID,23.7135,VALID,78,VALID,0.133203,
2008-04-23, 02:25:05,VALID,1007.15,VALID,0,VALID,95.9091,VALID,0,VALID,23.7135,VALID,78,VALID,0.141406,
2008-04-23, 02:26:05,VALID,1007.16,VALID,0,VALID,95.8939,VALID,0,VALID,23.7135,VALID,78,VALID,0.0328125,
2008-04-23, 02:27:05,VALID,1007.14,VALID,0,VALID,95.871,VALID,0,VALID,23.694,VALID,78,VALID,0.0410156,
2008-04-23, 02:28:05,VALID,1007.12,VALID,0,VALID,95.8862,VALID,0,VALID,23.694,VALID,78,VALID,0.223438,
2008-04-23, 02:29:05,VALID,1007.14,VALID,0,VALID,95.8862,VALID,0,VALID,23.6745,VALID,78,VALID,0.323828,
2008-04-23, 02:30:05,VALID,1007.11,VALID,0,VALID,95.8862,VALID,0,VALID,23.694,VALID,78,VALID,0.208203,
2008-04-23, 02:31:05,VALID,1007.1,VALID,0,VALID,95.9015,VALID,0,VALID,23.694,VALID,78,VALID,0.046875,
2008-04-23, 02:32:05,VALID,1007.12,VALID,0,VALID,95.8862,VALID,0,VALID,23.694,VALID,78,VALID,0.05625,
2008-04-23, 02:33:05,VALID,1007.09,VALID,0,VALID,95.8862,VALID,0,VALID,23.694,VALID,78,VALID,0,
2008-04-23, 02:34:05,VALID,1007.06,VALID,0,VALID,95.8786,VALID,0,VALID,23.733,VALID,78,VALID,0,
2008-04-23, 02:35:05,VALID,1007.07,VALID,0,VALID,95.9015,VALID,0,VALID,23.7135,VALID,78,VALID,0,
2008-04-23, 02:36:05,VALID,1007.05,VALID,0,VALID,95.8633,VALID,0,VALID,23.694,VALID,78,VALID,0,
2008-04-23, 02:37:05,VALID,1007.06,VALID,0,VALID,95.8557,VALID,0,VALID,23.694,VALID,78,VALID,0,
2008-04-23, 02:38:05,VALID,1007.02,VALID,0,VALID,95.8633,VALID,0,VALID,23.694,VALID,78,VALID,0,
2008-04-23, 02:39:05,VALID,1007,VALID,0,VALID,95.8633,VALID,0,VALID,23.6745,VALID,78,VALID,0,
2008-04-23, 02:40:05,VALID,1006.99,VALID,0,VALID,95.871,VALID,0,VALID,23.694,VALID,78,VALID,0,
2008-04-23, 02:41:05,VALID,1007.01,VALID,0,VALID,95.8786,VALID,0,VALID,23.694,VALID,78,VALID,0,
2008-04-23, 02:42:05,VALID,1007,VALID,0,VALID,95.8481,VALID,0,VALID,23.694,VALID,78,VALID,0,
2008-04-23, 02:43:05,VALID,1007.01,VALID,0,VALID,95.8481,VALID,0,VALID,23.6745,VALID,78,VALID,0,
2008-04-23, 02:44:05,VALID,1007.02,VALID,0,VALID,95.8557,VALID,0,VALID,23.6745,VALID,78,VALID,0,
2008-04-23, 02:45:05,VALID,1007.03,VALID,0,VALID,95.8633,VALID,0,VALID,23.6745,VALID,78,VALID,0,
2008-04-23, 02:46:05,VALID,1007.03,VALID,0,VALID,95.8481,VALID,0,VALID,23.6745,VALID,78,VALID,0,
2008-04-23, 02:47:05,VALID,1007.04,VALID,0,VALID,95.8405,VALID,0,VALID,23.655,VALID,78,VALID,0,
2008-04-23, 02:48:05,VALID,1007.04,VALID,0,VALID,95.8328,VALID,0,VALID,23.655,VALID,78,VALID,0,
2008-04-23, 02:49:05,VALID,1007.04,VALID,0,VALID,95.8633,VALID,0,VALID,23.6763,VALID,78,VALID,0.0828125,
2008-04-23, 02:50:05,VALID,1007.06,VALID,0,VALID,95.8939,VALID,0,VALID,23.6745,VALID,78,VALID,0,
2008-04-23, 02:51:05,VALID,1007.03,VALID,0,VALID,95.8862,VALID,0,VALID,23.6745,VALID,78,VALID,0,
2008-04-23, 02:52:05,VALID,1007.03,VALID,0,VALID,95.8862,VALID,0,VALID,23.655,VALID,78,VALID,0,
2008-04-23, 02:53:05,VALID,1007,VALID,0,VALID,95.8862,VALID,0,VALID,23.6958,VALID,78,VALID,0,
2008-04-23, 02:54:05,VALID,1007,VALID,0,VALID,95.8939,VALID,0,VALID,23.6745,VALID,78,VALID,0,
2008-04-23, 02:55:05,VALID,1006.96,VALID,0,VALID,95.8862,VALID,0,VALID,23.6745,VALID,78,VALID,0,
2008-04-23, 02:56:05,VALID,1006.95,VALID,0,VALID,95.8939,VALID,0,VALID,23.6745,VALID,78,VALID,0,
2008-04-23, 02:57:05,VALID,1006.94,VALID,0,VALID,95.8862,VALID,0,VALID,23.655,VALID,78,VALID,0,
2008-04-23, 02:58:05,VALID,1006.92,VALID,0,VALID,95.8939,VALID,0,VALID,23.6958,VALID,78,VALID,0,
2008-04-23, 02:59:05,VALID,1006.91,VALID,0,VALID,95.9091,VALID,0,VALID,23.6745,VALID,78,VALID,0,
2008-04-23, 03:00:05,VALID,1006.9,VALID,0,VALID,95.9015,VALID,0,VALID,23.6745,VALID,78,VALID,0,
2008-04-23, 03:01:05,VALID,1006.91,VALID,0,VALID,95.8939,VALID,0,VALID,23.6958,VALID,78,VALID,0,
2008-04-23, 03:02:05,VALID,1006.88,VALID,0,VALID,95.9015,VALID,0,VALID,23.6745,VALID,78,VALID,0,
2008-04-23, 03:03:05,VALID,1006.89,VALID,0,VALID,95.9167,VALID,0,VALID,23.6745,VALID,78,VALID,0,
2008-04-23, 03:04:05,VALID,1006.84,VALID,0,VALID,95.9167,VALID,0,VALID,23.6745,VALID,78,VALID,0,
2008-04-23, 03:05:05,VALID,1006.86,VALID,0,VALID,95.9015,VALID,0,VALID,23.6745,VALID,78,VALID,0,
2008-04-23, 03:06:05,VALID,1006.82,VALID,0,VALID,95.9244,VALID,0,VALID,23.6745,VALID,78,VALID,0,
2008-04-23, 03:07:05,VALID,1006.82,VALID,0,VALID,95.9472,VALID,0,VALID,23.7153,VALID,78,VALID,0,
2008-04-23, 03:08:05,VALID,1006.84,VALID,0,VALID,95.9549,VALID,0,VALID,23.7153,VALID,78,VALID,0,
2008-04-23, 03:09:05,VALID,1006.81,VALID,0,VALID,95.9244,VALID,0,VALID,23.6745,VALID,78,VALID,0,
2008-04-23, 03:10:05,VALID,1006.81,VALID,0,VALID,95.9167,VALID,0,VALID,23.694,VALID,325,VALID,0.358984,
2008-04-23, 03:11:05,VALID,1006.79,VALID,0,VALID,95.8939,VALID,0,VALID,23.6745,VALID,321,VALID,0.255078,
2008-04-23, 03:12:05,VALID,1006.79,VALID,0,VALID,95.8939,VALID,0,VALID,23.6745,VALID,321,VALID,0.292188,
2008-04-23, 03:13:05,VALID,1006.8,VALID,0,VALID,95.8786,VALID,0,VALID,23.6568,VALID,321,VALID,0.240234,
2008-04-23, 03:14:05,VALID,1006.76,VALID,0,VALID,95.871,VALID,0,VALID,23.655,VALID,321,VALID,0.1875,
2008-04-23, 03:15:05,VALID,1006.75,VALID,0,VALID,95.871,VALID,0,VALID,23.655,VALID,321,VALID,0.213672,
2008-04-23, 03:16:05,VALID,1006.72,VALID,0,VALID,95.8557,VALID,0,VALID,23.655,VALID,321,VALID,0.211719,
2008-04-23, 03:17:05,VALID,1006.7,VALID,0,VALID,95.8176,VALID,0,VALID,23.6763,VALID,321,VALID,0.298047,
2008-04-23, 03:18:05,VALID,1006.68,VALID,0,VALID,95.8481,VALID,0,VALID,23.655,VALID,321,VALID,0.279297,
2008-04-23, 03:19:05,VALID,1006.67,VALID,0,VALID,95.8405,VALID,0,VALID,23.655,VALID,333,VALID,0.296875,
2008-04-23, 03:20:05,VALID,1006.62,VALID,0,VALID,95.8328,VALID,0,VALID,23.6161,VALID,352,VALID,0.388672,
2008-04-23, 03:21:05,VALID,1006.64,VALID,0,VALID,95.8328,VALID,0,VALID,23.5966,VALID,352,VALID,0.212891,
2008-04-23, 03:22:05,VALID,1006.62,VALID,0,VALID,95.8252,VALID,0,VALID,23.6161,VALID,352,VALID,0.169141,
2008-04-23, 03:23:05,VALID,1006.65,VALID,0,VALID,95.8481,VALID,0,VALID,23.5966,VALID,352,VALID,0.189453,
2008-04-23, 03:24:05,VALID,1006.61,VALID,0,VALID,95.8405,VALID,0,VALID,23.5966,VALID,352,VALID,0.185156,
2008-04-23, 03:25:05,VALID,1006.61,VALID,0,VALID,95.8405,VALID,0,VALID,23.5966,VALID,352,VALID,0.230859,
2008-04-23, 03:26:05,VALID,1006.59,VALID,0,VALID,95.871,VALID,0,VALID,23.5771,VALID,352,VALID,0.163672,
2008-04-23, 03:27:05,VALID,1006.58,VALID,0,VALID,95.871,VALID,0,VALID,23.6179,VALID,352,VALID,0.125,
2008-04-23, 03:28:05,VALID,1006.57,VALID,0,VALID,95.8862,VALID,0,VALID,23.6161,VALID,352,VALID,0.084375,
2008-04-23, 03:29:05,VALID,1006.55,VALID,0,VALID,95.8862,VALID,0,VALID,23.5966,VALID,352,VALID,0.275,
2008-04-23, 03:30:05,VALID,1006.52,VALID,0,VALID,95.8557,VALID,0,VALID,23.5966,VALID,2,VALID,0.303906,
2008-04-23, 03:31:05,VALID,1006.53,VALID,0,VALID,95.8405,VALID,0,VALID,23.5771,VALID,32,VALID,0.419531,
2008-04-23, 03:32:05,VALID,1006.52,VALID,0,VALID,95.8328,VALID,0,VALID,23.5771,VALID,38,VALID,0.476953,
2008-04-23, 03:33:05,VALID,1006.51,VALID,0,VALID,95.8481,VALID,0,VALID,23.5789,VALID,51,VALID,0.350391,
2008-04-23, 03:34:05,VALID,1006.53,VALID,0,VALID,95.871,VALID,0,VALID,23.5771,VALID,68,VALID,0.43125,
2008-04-23, 03:35:05,VALID,1006.51,VALID,0,VALID,95.8786,VALID,0,VALID,23.5789,VALID,84,VALID,0.412109,
2008-04-23, 03:36:05,VALID,1006.52,VALID,0,VALID,95.9015,VALID,0,VALID,23.5966,VALID,84,VALID,0.444141,
2008-04-23, 03:37:05,VALID,1006.48,VALID,0,VALID,95.9167,VALID,0,VALID,23.6161,VALID,84,VALID,0.294922,
2008-04-23, 03:38:05,VALID,1006.46,VALID,0,VALID,95.9625,VALID,0,VALID,23.6161,VALID,84,VALID,0.371484,
2008-04-23, 03:39:05,VALID,1006.5,VALID,0,VALID,95.932,VALID,0,VALID,23.6161,VALID,84,VALID,0.388281,
2008-04-23, 03:40:05,VALID,1006.48,VALID,0,VALID,95.9167,VALID,0,VALID,23.6161,VALID,90,VALID,0.507813,
2008-04-23, 03:41:05,VALID,1006.52,VALID,0,VALID,95.8939,VALID,0,VALID,23.6356,VALID,74,VALID,0.266016,
2008-04-23, 03:42:05,VALID,1006.49,VALID,0,VALID,95.871,VALID,0,VALID,23.6373,VALID,63,VALID,0.0777344,
2008-04-23, 03:43:05,VALID,1006.49,VALID,0,VALID,95.8481,VALID,0,VALID,23.5966,VALID,63,VALID,0.0554687,
2008-04-23, 03:44:05,VALID,1006.49,VALID,0,VALID,95.8557,VALID,0,VALID,23.5771,VALID,63,VALID,0,
2008-04-23, 03:45:05,VALID,1006.49,VALID,0,VALID,95.8481,VALID,0,VALID,23.5966,VALID,63,VALID,0,
2008-04-23, 03:46:05,VALID,1006.49,VALID,0,VALID,95.8633,VALID,0,VALID,23.5771,VALID,63,VALID,0.0453125,
2008-04-23, 03:47:05,VALID,1006.5,VALID,0,VALID,95.8481,VALID,0,VALID,23.5966,VALID,63,VALID,0.0867188,
2008-04-23, 03:48:05,VALID,1006.52,VALID,0,VALID,95.8939,VALID,0,VALID,23.6179,VALID,63,VALID,0.157813,
2008-04-23, 03:49:05,VALID,1006.5,VALID,0,VALID,95.8939,VALID,0,VALID,23.6373,VALID,63,VALID,0.270703,
2008-04-23, 03:50:05,VALID,1006.49,VALID,0,VALID,95.9091,VALID,0,VALID,23.6161,VALID,128,VALID,0.430469,